EVA159 RKSI-RCTP

Flight info

Callsign EVA159
Flight time N/A
Altitude 36000
Route BOPTA Z51 BEDES Y711 MUGUS Y742 SALMI B576 BAKER
Aircraft B77W/H-SDE1E2E3FGHIJ1J3J4J5LM1P2RWXYZ/LB1D1

Departure

Time N/A
Airport Incheon International Airport (RKSI)

Arrival

Time 2026-05-07 12:45
Airport Taiwan Taoyuan International Airport (RCTP)
Time Latitude Longitude Altitude Speed Heading
2026-05-07 12:12 27.17730 123.07948 37964 ft 475 kts 223°
2026-05-07 12:13 27.15005 123.05766 37965 ft 475 kts 223°
2026-05-07 12:13 27.09620 123.01456 37976 ft 475 kts 223°
2026-05-07 12:14 27.04230 122.97159 37969 ft 476 kts 222°
2026-05-07 12:14 26.98823 122.92868 37967 ft 476 kts 222°
2026-05-07 12:15 26.93421 122.88587 37966 ft 476 kts 222°
2026-05-07 12:15 26.88008 122.84298 37958 ft 476 kts 222°
2026-05-07 12:16 26.82623 122.80039 37828 ft 470 kts 222°
2026-05-07 12:16 26.79990 122.77957 37514 ft 470 kts 222°
2026-05-07 12:16 26.77278 122.75812 37049 ft 472 kts 221°
2026-05-07 12:16 26.74596 122.73690 36596 ft 474 kts 221°
2026-05-07 12:17 26.71895 122.71556 36179 ft 475 kts 221°
2026-05-07 12:17 26.69191 122.69424 35781 ft 476 kts 220°
2026-05-07 12:17 26.66483 122.67289 35372 ft 477 kts 220°
2026-05-07 12:17 26.63765 122.65144 34942 ft 478 kts 220°
2026-05-07 12:18 26.61050 122.63001 34515 ft 479 kts 219°
2026-05-07 12:18 26.58325 122.60850 34074 ft 480 kts 219°
2026-05-07 12:18 26.55592 122.58695 33580 ft 481 kts 219°
2026-05-07 12:18 26.52861 122.56544 33100 ft 481 kts 219°
2026-05-07 12:19 26.50130 122.54395 32660 ft 480 kts 219°
2026-05-07 12:19 26.47402 122.52249 32322 ft 477 kts 219°
2026-05-07 12:19 26.44706 122.50130 32047 ft 473 kts 219°
2026-05-07 12:19 26.42026 122.48024 31766 ft 469 kts 219°
2026-05-07 12:20 26.39371 122.45939 31466 ft 466 kts 219°
2026-05-07 12:20 26.36729 122.43864 31153 ft 463 kts 219°
2026-05-07 12:20 26.34101 122.41800 30854 ft 461 kts 219°
2026-05-07 12:20 26.31491 122.39753 30582 ft 458 kts 218°
2026-05-07 12:21 26.28894 122.37716 30313 ft 455 kts 218°
2026-05-07 12:21 26.26311 122.35692 30047 ft 452 kts 218°
2026-05-07 12:21 26.23745 122.33683 29724 ft 450 kts 218°
2026-05-07 12:21 26.21187 122.31679 29375 ft 448 kts 218°
2026-05-07 12:22 26.18642 122.29687 29027 ft 446 kts 218°
2026-05-07 12:22 26.16113 122.27710 28687 ft 444 kts 218°
2026-05-07 12:22 26.13587 122.25736 28362 ft 443 kts 218°
2026-05-07 12:22 26.11027 122.23753 28030 ft 441 kts 218°
2026-05-07 12:23 26.08510 122.21819 27723 ft 439 kts 218°
2026-05-07 12:23 26.06001 122.19895 27415 ft 437 kts 218°
2026-05-07 12:23 26.03504 122.17980 27111 ft 435 kts 218°
2026-05-07 12:23 26.01021 122.16075 26706 ft 433 kts 218°
2026-05-07 12:24 25.98544 122.14174 26136 ft 431 kts 218°
2026-05-07 12:24 25.96087 122.12289 25577 ft 428 kts 217°
2026-05-07 12:24 25.93647 122.10417 25008 ft 425 kts 217°
2026-05-07 12:24 25.91218 122.08553 24440 ft 423 kts 217°
2026-05-07 12:25 25.88799 122.06699 23877 ft 422 kts 217°
2026-05-07 12:25 25.86389 122.04851 23271 ft 421 kts 217°
2026-05-07 12:25 25.83984 122.03009 22643 ft 418 kts 217°
2026-05-07 12:25 25.81600 122.01184 22069 ft 415 kts 217°
2026-05-07 12:26 25.79234 121.99374 21504 ft 411 kts 217°
2026-05-07 12:26 25.76886 121.97578 20960 ft 408 kts 217°
2026-05-07 12:26 25.74558 121.95799 20419 ft 405 kts 217°
2026-05-07 12:26 25.72238 121.94027 19897 ft 402 kts 217°
2026-05-07 12:27 25.69951 121.92289 19508 ft 396 kts 217°
2026-05-07 12:27 25.67651 121.90544 19107 ft 390 kts 217°
2026-05-07 12:27 25.65612 121.88709 18729 ft 382 kts 226°
2026-05-07 12:27 25.63837 121.86556 18359 ft 376 kts 233°
2026-05-07 12:28 25.62312 121.84222 17931 ft 372 kts 240°
2026-05-07 12:28 25.61027 121.81747 17547 ft 368 kts 242°
2026-05-07 12:28 25.59779 121.79268 17181 ft 370 kts 242°
2026-05-07 12:28 25.58523 121.76769 16815 ft 372 kts 242°
2026-05-07 12:29 25.57264 121.74279 16440 ft 371 kts 242°
2026-05-07 12:29 25.55998 121.71791 16076 ft 369 kts 242°
2026-05-07 12:29 25.54736 121.69322 15708 ft 368 kts 242°
2026-05-07 12:29 25.53478 121.66866 15333 ft 366 kts 242°
2026-05-07 12:30 25.52226 121.64424 14983 ft 365 kts 242°
2026-05-07 12:30 25.50974 121.61985 14632 ft 363 kts 242°
2026-05-07 12:30 25.49724 121.59553 14266 ft 362 kts 242°
2026-05-07 12:30 25.48377 121.57205 13919 ft 362 kts 236°
2026-05-07 12:31 25.46794 121.55039 13530 ft 361 kts 231°
2026-05-07 12:31 25.45148 121.52963 13156 ft 359 kts 231°
2026-05-07 12:31 25.43507 121.50885 12783 ft 356 kts 231°
2026-05-07 12:31 25.41893 121.48826 12421 ft 353 kts 231°
2026-05-07 12:32 25.40295 121.46782 12070 ft 350 kts 231°
2026-05-07 12:32 25.38714 121.44758 11728 ft 344 kts 231°
2026-05-07 12:32 25.37160 121.42773 11391 ft 338 kts 231°
2026-05-07 12:32 25.35634 121.40826 11073 ft 332 kts 231°
2026-05-07 12:33 25.32672 121.37046 10466 ft 322 kts 230°
2026-05-07 12:33 25.31199 121.35166 10154 ft 318 kts 230°
2026-05-07 12:33 25.29764 121.33336 9894 ft 305 kts 230°
2026-05-07 12:34 25.28429 121.31635 9698 ft 285 kts 230°
2026-05-07 12:34 25.27176 121.30040 9360 ft 273 kts 230°
2026-05-07 12:34 25.25951 121.28478 8999 ft 266 kts 230°
2026-05-07 12:34 25.24745 121.26940 8730 ft 264 kts 230°
2026-05-07 12:35 25.23550 121.25418 8455 ft 261 kts 230°
2026-05-07 12:35 25.22365 121.23909 8190 ft 258 kts 230°
2026-05-07 12:35 25.21573 121.22901 8028 ft 257 kts 230°
2026-05-07 12:35 25.20409 121.21419 7772 ft 254 kts 230°
2026-05-07 12:36 25.19254 121.19949 7517 ft 253 kts 230°
2026-05-07 12:36 25.18106 121.18489 7265 ft 251 kts 230°
2026-05-07 12:36 25.16967 121.17041 7031 ft 250 kts 230°
2026-05-07 12:36 25.15831 121.15597 6779 ft 249 kts 230°
2026-05-07 12:37 25.14693 121.14151 6529 ft 249 kts 229°
2026-05-07 12:37 25.13560 121.12712 6279 ft 249 kts 229°
2026-05-07 12:37 25.12425 121.11273 6025 ft 249 kts 229°
2026-05-07 12:37 25.11290 121.09832 5764 ft 249 kts 229°
2026-05-07 12:38 25.10154 121.08387 5495 ft 249 kts 230°
2026-05-07 12:38 25.09016 121.06942 5237 ft 250 kts 230°
2026-05-07 12:38 25.07877 121.05494 4987 ft 250 kts 230°
2026-05-07 12:38 25.06736 121.04047 4742 ft 250 kts 230°
2026-05-07 12:39 25.05600 121.02606 4503 ft 247 kts 229°
2026-05-07 12:39 25.04374 121.01345 4240 ft 239 kts 208°
2026-05-07 12:39 25.02789 121.00897 4053 ft 236 kts 180°
2026-05-07 12:39 25.01181 121.01254 3764 ft 237 kts 160°
2026-05-07 12:40 24.99807 121.02230 3504 ft 234 kts 140°
2026-05-07 12:40 24.98646 121.03453 3287 ft 230 kts 137°
2026-05-07 12:40 24.97514 121.04682 3041 ft 227 kts 137°
2026-05-07 12:40 24.96400 121.05888 2814 ft 220 kts 134°
2026-05-07 12:41 24.95683 121.07314 2617 ft 213 kts 100°
2026-05-07 12:41 24.95887 121.08845 2525 ft 198 kts 62°
2026-05-07 12:41 24.96630 121.10083 2524 ft 196 kts 56°
2026-05-07 12:41 24.97449 121.11320 2490 ft 198 kts 51°
2026-05-07 12:42 24.98324 121.12475 2430 ft 197 kts 50°
2026-05-07 12:42 24.99195 121.13581 2179 ft 184 kts 50°
2026-05-07 12:42 25.00006 121.14611 1909 ft 171 kts 50°
2026-05-07 12:42 25.00744 121.15550 1703 ft 152 kts 51°
2026-05-07 12:43 25.01441 121.16440 1519 ft 156 kts 51°
2026-05-07 12:43 25.02151 121.17344 1328 ft 155 kts 51°
2026-05-07 12:43 25.02852 121.18236 1114 ft 153 kts 50°
2026-05-07 12:43 25.03543 121.19117 936 ft 152 kts 50°
2026-05-07 12:44 25.04206 121.19964 738 ft 151 kts 50°
2026-05-07 12:44 25.04890 121.20843 541 ft 150 kts 49°
2026-05-07 12:44 25.05571 121.21713 336 ft 149 kts 49°
2026-05-07 12:44 25.06252 121.22571 140 ft 148 kts 49°
2026-05-07 12:45 25.06901 121.23395 103 ft 132 kts 50°
2026-05-07 12:45 25.07390 121.24012 100 ft 80 kts 49°
2026-05-07 12:45 25.07699 121.24230 104 ft 27 kts 20°
2026-05-07 12:45 25.07759 121.24253 105 ft 4 kts 20°
2026-05-07 12:46 25.07786 121.24264 105 ft 4 kts 20°
2026-05-07 12:46 25.07814 121.24275 106 ft 4 kts 16°
2026-05-07 12:46 25.07863 121.24274 107 ft 10 kts 345°
2026-05-07 12:46 25.07920 121.24234 106 ft 10 kts 320°
2026-05-07 12:47 25.07963 121.24193 106 ft 7 kts 315°
2026-05-07 12:47 25.07976 121.24139 108 ft 7 kts 263°
2026-05-07 12:47 25.07953 121.24087 108 ft 8 kts 233°
2026-05-07 12:47 25.07917 121.24040 107 ft 8 kts 230°
2026-05-07 12:48 25.07878 121.23990 107 ft 9 kts 229°
2026-05-07 12:48 25.07837 121.23937 108 ft 9 kts 229°
2026-05-07 12:48 25.07793 121.23881 108 ft 10 kts 229°
2026-05-07 12:48 25.07747 121.23821 108 ft 10 kts 229°
2026-05-07 12:49 25.07699 121.23760 105 ft 11 kts 229°
2026-05-07 12:49 25.07650 121.23697 108 ft 11 kts 229°
2026-05-07 12:49 25.07604 121.23639 107 ft 8 kts 229°
2026-05-07 12:49 25.07580 121.23594 109 ft 7 kts 261°
2026-05-07 12:50 25.07597 121.23545 108 ft 7 kts 306°
2026-05-07 12:50 25.07620 121.23519 109 ft 3 kts 318°
2026-05-07 12:50 25.07638 121.23501 109 ft 4 kts 319°
2026-05-07 12:50 25.07642 121.23498 109 ft 0 kts 319°